SCP
0 0 0 0 0 0 0 0 0 0 0 0 0 0 0 0 0 0 0 0 0 0 0 0 0 0 -0 0 -0 0 0 0 0 0 0 0 0 0 0 0 0 0 0 0
0 0 0 0 0 0 0 0 0 0 0 0 0 0 0 0 0 0 0 0 0 0 0 0 0 0 0 0 -0 -0 -0 0 0 0 0 0 0 0 0 0 0 0 0 0
0 0 0 0 0 0 0 0 1 0 0 0 0 0 0 0 0 0 0 0 0 0 0 0 0 0 0 0 -0 0 0 0 0 0 0 0 0 0 0 0 0 0 0 0
0 0 0 0 0 0 0 0 0 0 0 0 0 0 0 0 0 0 0 0 0 0 0 0 0 0 0 0 0 0 0 0 0 0 0 0 0 0 0 0 0 0 0 0
0 0 0 0 0 0 0 0 0 0 0 0 0 0 0 0 0 0 0 0 0 0 0 0 0 0 0 0 0 0 0 0 0 0 0 0 0 0 0 0 0 0 0 0
0 0 0 0 0 0 0 0 0 0 0 0 0 0 0 0 0 0 0 0 0 0 0 0 0 0 0 0 0 0 0 0 0 0 0 0 0 0 0 0 0 0 0 0
0 0 0 0 0 0 0 0 0 0 0 0 0 0 0 0 0 0 0 0 0 0 0 0 0 0 0 0 0 0 0 0 0 0 0 0 0 0 0 0 0 0 0 0
0 0 0 0 0 0 0 0 0 0 0 0 0 0 0 0 0 0 0 0 0 0 0 0 0 0 0 0 0 0 0 0 0 0 0 0 0 0 0 0 0 0 0 0
0 0 0 0 0 0 0 0 0 0 0 0 0 0 0 0 0 0 0 0 0 0 0 0 0 0 0 0 0 0 0 0 0 0 0 0 0 0 0 0 0 0 0 0
0 0 0 0 0 0 0 0 0 0 0 0 0 0 0 0 0 0 0 0 0 0 0 0 0 0 0 0 0 0 0 0 0 0 0 0 0 0 0 0 0 0 0 0
0 0 0 0 0 0 0 0 0 0 0 0 0 0 0 0 0 0 0 0 0 0 0 0 0 0 0 0 0 0 0 0 0 0 0 0 0 0 0 0 0 0 0 0
0 0 0 0 0 0 0 0 0 0 0 0 0 0 0 0 0 0 0 0 0 0 0 0 0 0 0 0 0 0 0 0 0 0 0 0 0 0 0 0 0 0 0 0
0 0 0 0 0 0 0 0 0 0 0 0 0 0 0 0 0 0 0 0 0 0 0 0 0 0 0 0 0 0 0 0 0 0 0 0 0 0 0 0 0 0 0 0
0 0 0 0 0 0 0 0 0 0 0 0 0 0 0 0 0 0 0 0 0 0 0 0 0 0 0 0 0 0 0 0 0 0 0 0 0 0 0 0 0 0 0 0
0 0 0 0 0 0 0 0 0 0 1 0 0 0 0 0 0 0 0 0 0 0 0 0 0 0 0 0 0 0 0 0 0 0 0 0 0 0 0 0 0 0 0 0
0 0 0 0 0 0 0 0 0 0 0 0 0 0 0 0 0 0 0 0 0 0 0 0 0 0 0 0 0 0 0 0 0 0 0 0 0 0 0 0 0 0 0 0
0 0 0 0 0 0 0 0 0 0 0 0 0 0 0 0 0 0 0 0 0 0 0 0 0 0 0 0 0 0 0 0 0 0 0 0 0 0 0 0 0 0 0 0
0 0 0 0 0 0 0 0 0 0 0 0 0 0 0 0 0 0 0 0 0 0 0 0 0 0 0 0 0 0 0 0 0 0 0 0 0 0 0 0 0 0 0 0
0 0 0 0 0 0 0 0 0 0 0 0 0 0 0 0 0 0 0 0 0 0 0 0 0 0 0 0 0 0 0 0 0 0 0 0 0 0 0 0 0 0 0 0
0 0 0 0 0 0 0 0 0 0 0 0 0 0 0 0 0 0 0 0 0 0 0 0 0 0 0 0 0 0 0 0 0 0 0 0 0 0 0 0 0 0 0 0
0 0 0 0 0 0 0 0 0 0 0 0 0 0 0 0 0 0 0 0 0 0 0 0 0 0 0 0 0 0 0 0 0 0 0 0 0 0 0 0 0 0 0 0
0 0 0 0 0 0 0 0 0 0 0 0 0 0 0 0 0 0 0 0 0 0 0 0 0 0 0 0 0 0 0 0 0 0 0 0 0 0 0 0 0 0 0 0
0 0 0 0 0 0 0 0 0 0 0 0 0 0 0 0 0 0 0 0 0 0 0 0 0 0 0 0 0 0 0 0 0 0 0 0 0 0 0 0 0 0 0 0
0 0 0 0 0 0 0 0 0 0 0 0 0 0 0 0 0 0 0 0 0 0 0 0 0 0 0 0 0 0 0 0 0 0 0 0 0 0 0 0 0 0 0 0
0 0 0 0 0 0 0 0 0 0 0 0 0 0 0 0 0 0 0 0 0 0 0 0 0 0 0 0 0 0 0 0 0 0 0 0 0 0 0 0 0 0 0 0
0 0 0 0 0 0 0 0 0 0 0 0 0 0 0 0 0 0 0 0 0 0 0 0 0 0 0 0 0 0 0 0 0 0 0 0 0 0 0 0 0 0 0 0
0 0 0 0 0 0 0 0 0 0 0 0 0 0 0 0 0 0 0 0 0 0 0 0 0 0 0 0 0 0 0 0 0 0 0 0 0 0 0 0 0 0 0 0
Wind_Speed_500mb
11 13 16 24 32 39 35 20 11 23 25 20 14 10 12 10 17 8 6 6 8 10 8 6 6 9 11 6 9 8 12 4 4 10 7 6 8 7 7 4 4 3 6 12
13 14 17 27 33 36 19 11 13 23 30 8 6 10 13 7 14 6 8 7 2 7 10 7 11 11 10 8 9 14 13 2 6 10 12 7 8 3 3 4 2 16 10 8
13 13 17 24 29 31 16 12 6 12 18 9 19 18 18 13 8 9 9 13 13 15 11 7 13 13 7 5 10 8 6 3 6 11 16 10 12 15 14 16 12 19 21 29
13 13 14 19 23 26 17 3 4 9 13 14 18 20 20 21 11 7 13 8 8 14 8 12 9 11 13 6 4 3 5 3 9 18 21 19 21 24 24 26 25 22 26 29
12 12 12 14 18 21 9 9 8 6 5 15 20 10 20 25 12 17 14 13 15 10 13 4 12 8 5 3 8 2 5 2 8 8 11 15 23 29 32 25 17 26 23 27
13 13 12 12 13 14 6 8 18 13 7 19 16 15 19 20 21 5 9 23 17 19 19 21 19 16 11 9 3 4 3 1 6 7 20 23 13 7 5 10 15 15 20 21
16 14 12 13 13 12 10 14 12 9 8 16 17 17 20 24 13 17 23 17 18 13 20 23 22 22 14 8 7 3 8 3 4 7 13 5 10 13 25 19 17 20 17 18
20 17 15 14 15 14 12 19 9 8 6 14 13 22 31 23 27 31 25 12 17 21 5 4 4 3 6 3 10 8 1 7 4 3 10 27 24 7 11 14 25 24 12 19
24 21 18 17 17 16 17 14 12 7 26 10 24 25 33 23 16 15 11 14 15 9 6 4 4 4 1 9 12 10 9 4 7 6 6 8 6 5 8 13 18 15 13 24
26 23 20 19 20 19 19 16 14 9 13 12 23 17 23 16 23 12 17 16 8 5 4 3 5 5 4 5 5 8 4 4 9 11 10 15 15 6 10 8 6 14 22 14
26 24 23 21 22 21 19 18 16 13 9 15 14 15 19 16 22 10 23 14 5 6 5 6 6 1 7 5 4 9 12 11 8 7 7 12 7 8 5 19 29 11 12 17
28 25 23 23 22 23 20 8 15 14 13 14 22 21 24 21 14 15 28 4 16 18 6 6 5 5 1 1 5 8 8 13 7 15 11 20 15 21 29 19 14 14 16 24
28 25 24 23 23 23 24 19 18 13 10 10 13 10 23 22 24 21 14 10 13 15 8 14 6 6 11 9 11 15 13 27 12 14 15 34 23 34 4 4 9 16 21 22
29 27 25 23 23 22 22 23 25 18 10 10 10 19 22 28 25 22 17 18 24 20 12 8 6 6 22 9 15 15 20 20 20 28 38 37 33 6 5 18 21 16 17 21
29 27 25 23 22 21 21 23 26 28 10 8 7 17 26 31 30 22 21 19 22 14 9 6 7 8 7 7 5 16 30 28 19 21 19 11 19 26 30 28 18 13 16 21
29 25 25 25 25 22 15 9 22 28 20 6 6 10 16 27 28 20 21 22 18 19 12 10 11 17 15 9 8 17 18 22 24 21 7 9 17 24 20 15 10 11 15 23
32 25 22 26 29 29 19 8 13 35 24 8 5 7 8 25 18 17 19 19 16 17 11 13 12 17 17 7 13 21 23 22 13 9 7 13 12 15 9 8 10 14 24 33
37 29 26 23 27 30 25 13 12 27 18 11 5 5 5 22 13 12 16 11 12 13 12 6 9 12 8 9 24 33 27 17 11 5 12 21 7 7 7 9 16 25 33 40
48 35 28 26 29 25 36 27 14 19 12 7 9 13 8 18 10 11 11 10 6 5 8 9 10 7 12 19 25 22 19 16 12 10 11 9 6 6 10 16 24 32 39 41
51 48 30 20 20 23 26 21 11 13 14 11 13 14 8 18 14 8 11 7 5 6 5 8 5 6 27 14 12 17 15 14 13 18 14 9 7 11 18 23 28 34 37 40
48 28 16 22 50 34 25 13 14 12 5 15 16 25 10 12 8 8 10 5 5 6 6 6 6 6 27 30 22 15 14 17 16 10 8 3 8 17 24 27 30 32 35 41
20 15 27 37 7 10 9 6 8 8 10 12 14 10 13 14 11 9 9 6 4 7 17 5 6 7 18 25 27 24 21 19 14 7 4 10 16 22 26 29 34 37 45 51
35 9 7 4 3 4 10 17 7 7 15 17 14 8 11 10 9 9 6 10 5 1 6 7 6 22 22 26 29 25 22 18 12 5 12 20 28 35 38 41 42 48 51 50
5 5 6 5 3 5 4 5 5 8 13 30 32 13 6 7 5 5 6 5 5 7 6 8 6 19 24 22 20 22 18 12 12 21 31 39 42 42 39 39 46 50 50 52
5 5 5 5 5 10 10 12 12 15 27 21 16 11 6 6 5 2 6 7 6 7 3 5 11 20 21 19 19 18 17 16 24 28 37 45 43 40 43 46 50 48 49 54
5 5 6 7 6 4 7 11 14 12 19 15 11 5 3 4 2 6 6 5 7 4 6 9 17 16 14 14 14 19 20 29 44 45 42 40 38 40 48 50 49 49 49 56
6 4 9 10 8 7 7 7 8 15 14 3 4 3 5 6 3 3 3 4 3 11 15 14 13 9 4 12 22 30 37 46 39 36 34 37 41 45 49 49 44 37 52 57
Wind_Direction_500mb
135 114 147 158 155 152 149 172 192 173 168 189 209 192 150 128 140 139 105 73 110 157 143 130 102 127 52 63 358 33 38 15 295 31 63 341 339 17 2 327 352 256 310 285
144 117 131 165 164 160 163 187 110 165 174 164 191 155 124 120 162 140 158 128 148 177 142 122 123 115 87 60 10 25 12 75 291 182 161 169 278 88 17 72 272 252 246 261
158 133 118 162 178 178 171 171 118 150 204 289 192 179 169 136 93 101 97 117 142 137 146 119 151 124 128 88 48 41 304 356 306 308 327 319 287 265 264 254 259 276 276 287
169 154 130 135 173 185 177 198 137 153 181 220 203 184 182 164 148 128 164 157 188 156 148 134 142 135 136 135 118 126 337 269 330 300 304 304 292 280 268 262 259 254 277 291
175 174 157 140 146 169 183 184 156 147 140 173 180 152 198 181 132 159 163 181 150 162 151 221 167 153 199 126 164 105 38 93 335 279 297 308 297 279 269 265 274 281 287 296
183 183 173 164 157 161 157 163 153 157 167 178 173 192 167 171 144 49 181 145 139 93 75 75 67 68 72 93 151 136 359 12 355 281 340 321 281 247 181 285 283 256 270 293
193 188 184 172 172 180 172 175 147 131 155 184 187 181 169 157 171 141 126 142 116 109 112 97 74 75 75 99 72 15 133 92 51 298 312 311 53 294 291 276 283 278 298 351
203 194 187 181 170 167 169 167 143 140 115 168 157 162 146 129 129 140 122 79 114 137 121 110 68 111 63 83 50 84 199 131 130 268 292 292 302 71 10 334 301 313 358 8
204 203 192 185 176 168 159 154 150 128 123 215 162 152 162 149 137 135 111 109 128 129 86 101 168 195 334 139 135 60 72 100 244 163 267 266 85 39 329 303 269 52 356 336
203 205 203 189 184 175 168 156 141 120 106 147 161 157 178 172 179 139 146 151 141 167 95 116 185 202 338 206 188 195 130 193 229 227 244 268 302 23 308 264 351 327 337 319
202 204 206 198 191 186 177 168 162 146 115 149 158 147 158 166 186 160 139 142 150 130 117 163 204 188 199 214 264 180 195 185 202 210 250 274 165 216 253 325 309 320 306 286
203 206 207 207 199 193 191 184 176 164 157 164 178 178 174 178 190 174 171 195 156 177 132 166 155 185 116 233 245 181 251 209 241 194 251 306 225 208 270 270 315 302 284 281
206 207 210 212 211 200 196 194 187 174 130 130 159 173 187 188 192 179 167 195 172 176 148 152 160 194 175 178 226 263 276 263 236 278 265 295 298 303 296 110 282 255 266 284
207 208 208 210 214 212 201 193 194 187 167 138 185 202 186 191 183 181 180 185 184 160 155 123 147 187 205 210 257 262 254 284 264 267 289 299 286 307 272 290 280 280 285 291
210 210 210 209 207 207 205 204 203 201 193 150 146 180 203 195 192 193 201 199 180 172 148 130 197 221 226 184 293 257 258 261 257 270 304 261 291 338 303 295 291 279 295 301
209 212 209 204 202 195 176 214 221 208 196 171 149 201 190 197 196 190 188 190 201 208 189 199 230 217 215 189 221 257 272 278 274 285 286 242 293 300 290 295 298 292 300 305
205 210 214 209 198 187 202 209 208 203 190 182 113 195 197 183 169 180 189 201 210 215 226 207 200 209 213 192 234 252 270 267 258 251 256 305 254 267 248 290 295 299 303 307
200 202 212 221 217 207 210 203 194 186 187 191 154 164 180 185 186 191 193 194 204 218 241 152 212 236 234 247 242 252 245 219 201 199 271 266 249 215 254 285 305 311 309 311
204 208 218 216 214 214 213 210 207 184 194 213 161 162 191 171 159 163 159 171 196 213 220 199 209 177 217 236 248 199 198 206 223 223 189 185 213 257 301 313 312 310 310 312
202 202 191 201 197 187 189 195 205 215 216 215 202 171 155 180 166 153 135 178 213 203 198 166 214 248 242 227 208 186 193 213 213 182 193 214 270 305 309 307 306 307 307 311
194 193 210 174 155 155 174 174 179 179 253 211 184 182 145 172 155 162 195 164 165 226 164 220 219 245 217 202 183 168 156 158 162 179 164 214 293 300 300 300 302 306 306 308
172 148 143 153 184 149 173 181 158 198 209 183 159 144 162 136 141 118 179 188 175 222 149 211 240 190 151 170 167 160 155 156 153 159 237 287 295 298 298 299 302 306 306 309
145 157 144 128 180 191 193 186 193 186 161 159 147 111 126 130 145 123 171 186 184 128 194 227 235 134 159 158 159 158 157 164 180 243 285 295 301 299 299 298 302 308 307 312
81 89 88 338 125 13 347 360 70 81 127 140 131 99 122 124 106 135 182 68 197 213 230 222 151 162 156 155 165 169 176 210 261 295 304 306 306 303 298 297 305 307 307 313
73 37 72 51 56 53 57 34 71 93 129 114 93 75 80 73 108 45 112 164 220 229 249 64 133 148 154 157 159 177 211 266 294 302 300 301 303 298 297 305 308 309 308 309
71 71 117 141 93 60 58 91 98 118 135 103 73 91 103 102 94 184 200 198 217 139 119 155 154 151 154 171 203 236 258 288 300 299 297 296 296 297 303 306 307 307 306 310
113 120 146 139 113 140 143 162 167 169 158 83 118 158 78 116 200 217 243 239 43 142 148 147 136 149 220 264 251 255 275 293 298 298 297 295 298 300 301 303 310 302 306 312
Wind_Speed_850mb
11 13 16 24 32 39 35 20 11 23 25 20 14 10 12 10 17 8 6 6 8 10 8 6 6 9 11 6 9 8 12 4 4 10 7 6 8 7 7 4 4 3 6 12
13 14 17 27 33 36 19 11 13 23 30 8 6 10 13 7 14 6 8 7 2 7 10 7 11 11 10 8 9 14 13 2 6 10 12 7 8 3 3 4 2 16 10 8
13 13 17 24 29 31 16 12 6 12 18 9 19 18 18 13 8 9 9 13 13 15 11 7 13 13 7 5 10 8 6 3 6 11 16 10 12 15 14 16 12 19 21 29
13 13 14 19 23 26 17 3 4 9 13 14 18 20 20 21 11 7 13 8 8 14 8 12 9 11 13 6 4 3 5 3 9 18 21 19 21 24 24 26 25 22 26 29
12 12 12 14 18 21 9 9 8 6 5 15 20 10 20 25 12 17 14 13 15 10 13 4 12 8 5 3 8 2 5 2 8 8 11 15 23 29 32 25 17 26 23 27
13 13 12 12 13 14 6 8 18 13 7 19 16 15 19 20 21 5 9 23 17 19 19 21 19 16 11 9 3 4 3 1 6 7 20 23 13 7 5 10 15 15 20 21
16 14 12 13 13 12 10 14 12 9 8 16 17 17 20 24 13 17 23 17 18 13 20 23 22 22 14 8 7 3 8 3 4 7 13 5 10 13 25 19 17 20 17 18
20 17 15 14 15 14 12 19 9 8 6 14 13 22 31 23 27 31 25 12 17 21 5 4 4 3 6 3 10 8 1 7 4 3 10 27 24 7 11 14 25 24 12 19
24 21 18 17 17 16 17 14 12 7 26 10 24 25 33 23 16 15 11 14 15 9 6 4 4 4 1 9 12 10 9 4 7 6 6 8 6 5 8 13 18 15 13 24
26 23 20 19 20 19 19 16 14 9 13 12 23 17 23 16 23 12 17 16 8 5 4 3 5 5 4 5 5 8 4 4 9 11 10 15 15 6 10 8 6 14 22 14
26 24 23 21 22 21 19 18 16 13 9 15 14 15 19 16 22 10 23 14 5 6 5 6 6 1 7 5 4 9 12 11 8 7 7 12 7 8 5 19 29 11 12 17
28 25 23 23 22 23 20 8 15 14 13 14 22 21 24 21 14 15 28 4 16 18 6 6 5 5 1 1 5 8 8 13 7 15 11 20 15 21 29 19 14 14 16 24
28 25 24 23 23 23 24 19 18 13 10 10 13 10 23 22 24 21 14 10 13 15 8 14 6 6 11 9 11 15 13 27 12 14 15 34 23 34 4 4 9 16 21 22
29 27 25 23 23 22 22 23 25 18 10 10 10 19 22 28 25 22 17 18 24 20 12 8 6 6 22 9 15 15 20 20 20 28 38 37 33 6 5 18 21 16 17 21
29 27 25 23 22 21 21 23 26 28 10 8 7 17 26 31 30 22 21 19 22 14 9 6 7 8 7 7 5 16 30 28 19 21 19 11 19 26 30 28 18 13 16 21
29 25 25 25 25 22 15 9 22 28 20 6 6 10 16 27 28 20 21 22 18 19 12 10 11 17 15 9 8 17 18 22 24 21 7 9 17 24 20 15 10 11 15 23
32 25 22 26 29 29 19 8 13 35 24 8 5 7 8 25 18 17 19 19 16 17 11 13 12 17 17 7 13 21 23 22 13 9 7 13 12 15 9 8 10 14 24 33
37 29 26 23 27 30 25 13 12 27 18 11 5 5 5 22 13 12 16 11 12 13 12 6 9 12 8 9 24 33 27 17 11 5 12 21 7 7 7 9 16 25 33 40
48 35 28 26 29 25 36 27 14 19 12 7 9 13 8 18 10 11 11 10 6 5 8 9 10 7 12 19 25 22 19 16 12 10 11 9 6 6 10 16 24 32 39 41
51 48 30 20 20 23 26 21 11 13 14 11 13 14 8 18 14 8 11 7 5 6 5 8 5 6 27 14 12 17 15 14 13 18 14 9 7 11 18 23 28 34 37 40
48 28 16 22 50 34 25 13 14 12 5 15 16 25 10 12 8 8 10 5 5 6 6 6 6 6 27 30 22 15 14 17 16 10 8 3 8 17 24 27 30 32 35 41
20 15 27 37 7 10 9 6 8 8 10 12 14 10 13 14 11 9 9 6 4 7 17 5 6 7 18 25 27 24 21 19 14 7 4 10 16 22 26 29 34 37 45 51
35 9 7 4 3 4 10 17 7 7 15 17 14 8 11 10 9 9 6 10 5 1 6 7 6 22 22 26 29 25 22 18 12 5 12 20 28 35 38 41 42 48 51 50
5 5 6 5 3 5 4 5 5 8 13 30 32 13 6 7 5 5 6 5 5 7 6 8 6 19 24 22 20 22 18 12 12 21 31 39 42 42 39 39 46 50 50 52
5 5 5 5 5 10 10 12 12 15 27 21 16 11 6 6 5 2 6 7 6 7 3 5 11 20 21 19 19 18 17 16 24 28 37 45 43 40 43 46 50 48 49 54
5 5 6 7 6 4 7 11 14 12 19 15 11 5 3 4 2 6 6 5 7 4 6 9 17 16 14 14 14 19 20 29 44 45 42 40 38 40 48 50 49 49 49 56
6 4 9 10 8 7 7 7 8 15 14 3 4 3 5 6 3 3 3 4 3 11 15 14 13 9 4 12 22 30 37 46 39 36 34 37 41 45 49 49 44 37 52 57
Wind_Direction_850mb
135 114 147 158 155 152 149 172 192 173 168 189 209 192 150 128 140 139 105 73 110 157 143 130 102 127 52 63 358 33 38 15 295 31 63 341 339 17 2 327 352 256 310 285
144 117 131 165 164 160 163 187 110 165 174 164 191 155 124 120 162 140 158 128 148 177 142 122 123 115 87 60 10 25 12 75 291 182 161 169 278 88 17 72 272 252 246 261
158 133 118 162 178 178 171 171 118 150 204 289 192 179 169 136 93 101 97 117 142 137 146 119 151 124 128 88 48 41 304 356 306 308 327 319 287 265 264 254 259 276 276 287
169 154 130 135 173 185 177 198 137 153 181 220 203 184 182 164 148 128 164 157 188 156 148 134 142 135 136 135 118 126 337 269 330 300 304 304 292 280 268 262 259 254 277 291
175 174 157 140 146 169 183 184 156 147 140 173 180 152 198 181 132 159 163 181 150 162 151 221 167 153 199 126 164 105 38 93 335 279 297 308 297 279 269 265 274 281 287 296
183 183 173 164 157 161 157 163 153 157 167 178 173 192 167 171 144 49 181 145 139 93 75 75 67 68 72 93 151 136 359 12 355 281 340 321 281 247 181 285 283 256 270 293
193 188 184 172 172 180 172 175 147 131 155 184 187 181 169 157 171 141 126 142 116 109 112 97 74 75 75 99 72 15 133 92 51 298 312 311 53 294 291 276 283 278 298 351
203 194 187 181 170 167 169 167 143 140 115 168 157 162 146 129 129 140 122 79 114 137 121 110 68 111 63 83 50 84 199 131 130 268 292 292 302 71 10 334 301 313 358 8
204 203 192 185 176 168 159 154 150 128 123 215 162 152 162 149 137 135 111 109 128 129 86 101 168 195 334 139 135 60 72 100 244 163 267 266 85 39 329 303 269 52 356 336
203 205 203 189 184 175 168 156 141 120 106 147 161 157 178 172 179 139 146 151 141 167 95 116 185 202 338 206 188 195 130 193 229 227 244 268 302 23 308 264 351 327 337 319
202 204 206 198 191 186 177 168 162 146 115 149 158 147 158 166 186 160 139 142 150 130 117 163 204 188 199 214 264 180 195 185 202 210 250 274 165 216 253 325 309 320 306 286
203 206 207 207 199 193 191 184 176 164 157 164 178 178 174 178 190 174 171 195 156 177 132 166 155 185 116 233 245 181 251 209 241 194 251 306 225 208 270 270 315 302 284 281
206 207 210 212 211 200 196 194 187 174 130 130 159 173 187 188 192 179 167 195 172 176 148 152 160 194 175 178 226 263 276 263 236 278 265 295 298 303 296 110 282 255 266 284
207 208 208 210 214 212 201 193 194 187 167 138 185 202 186 191 183 181 180 185 184 160 155 123 147 187 205 210 257 262 254 284 264 267 289 299 286 307 272 290 280 280 285 291
210 210 210 209 207 207 205 204 203 201 193 150 146 180 203 195 192 193 201 199 180 172 148 130 197 221 226 184 293 257 258 261 257 270 304 261 291 338 303 295 291 279 295 301
209 212 209 204 202 195 176 214 221 208 196 171 149 201 190 197 196 190 188 190 201 208 189 199 230 217 215 189 221 257 272 278 274 285 286 242 293 300 290 295 298 292 300 305
205 210 214 209 198 187 202 209 208 203 190 182 113 195 197 183 169 180 189 201 210 215 226 207 200 209 213 192 234 252 270 267 258 251 256 305 254 267 248 290 295 299 303 307
200 202 212 221 217 207 210 203 194 186 187 191 154 164 180 185 186 191 193 194 204 218 241 152 212 236 234 247 242 252 245 219 201 199 271 266 249 215 254 285 305 311 309 311
204 208 218 216 214 214 213 210 207 184 194 213 161 162 191 171 159 163 159 171 196 213 220 199 209 177 217 236 248 199 198 206 223 223 189 185 213 257 301 313 312 310 310 312
202 202 191 201 197 187 189 195 205 215 216 215 202 171 155 180 166 153 135 178 213 203 198 166 214 248 242 227 208 186 193 213 213 182 193 214 270 305 309 307 306 307 307 311
194 193 210 174 155 155 174 174 179 179 253 211 184 182 145 172 155 162 195 164 165 226 164 220 219 245 217 202 183 168 156 158 162 179 164 214 293 300 300 300 302 306 306 308
172 148 143 153 184 149 173 181 158 198 209 183 159 144 162 136 141 118 179 188 175 222 149 211 240 190 151 170 167 160 155 156 153 159 237 287 295 298 298 299 302 306 306 309
145 157 144 128 180 191 193 186 193 186 161 159 147 111 126 130 145 123 171 186 184 128 194 227 235 134 159 158 159 158 157 164 180 243 285 295 301 299 299 298 302 308 307 312
81 89 88 338 125 13 347 360 70 81 127 140 131 99 122 124 106 135 182 68 197 213 230 222 151 162 156 155 165 169 176 210 261 295 304 306 306 303 298 297 305 307 307 313
73 37 72 51 56 53 57 34 71 93 129 114 93 75 80 73 108 45 112 164 220 229 249 64 133 148 154 157 159 177 211 266 294 302 300 301 303 298 297 305 308 309 308 309
71 71 117 141 93 60 58 91 98 118 135 103 73 91 103 102 94 184 200 198 217 139 119 155 154 151 154 171 203 236 258 288 300 299 297 296 296 297 303 306 307 307 306 310
113 120 146 139 113 140 143 162 167 169 158 83 118 158 78 116 200 217 243 239 43 142 148 147 136 149 220 264 251 255 275 293 298 298 297 295 298 300 301 303 310 302 306 312